Tracking 29594 objects as of 20-Sep-2024
HD Live streaming from Space Station
objects crossing your sky now

FENGYUN 1C DEB

Track FENGYUN 1C DEB now!
10-day predictions


NORAD ID: 32171
Int'l Code: 1999-025CTR
Perigee: 750.6 km
Apogee: 1,509.6 km
Inclination: 102.8 °
Period: 107.8 minutes
Semi major axis: 7501 km
RCS: 0.0135 m2 (small)
Launch date: May 10, 1999
Source: People's Republic of China (PRC)
Launch site: Taiyaun Space Center, China (TSC)

Note: This is SATELLITE DEBRIS
Your satellite tracking list
Your tracking list is empty




NASA's NSSDC Master Catalog

Two Line Element Set (TLE):
1 32171U 99025CTR 24257.19002610  .00017755  00000-0  16552-1 0  9993
2 32171 102.8112  26.8251 0505937 268.0760 218.0910 13.36338069545123
Source of the keplerian elements: AFSPC